• In Netherlands
  • List of Countries
  • For 7 days
  • Water Temperature
  • Satellite Maps
  • Weather Map
  • Weather Widgets
  • user-avatar
    Login

    Hourly Weather Andora

    Today, 22 January, Sunday

    Time Temperature Precipitation Wind Pressure Humidity
    00:00 -4°C° 0.1 mm 2 mps 622 mmHg 83%
    01:00 -5°C° 0.1 mm 2 mps 622 mmHg 83%
    02:00 -5°C° 0.1 mm 2 mps 622 mmHg 83%
    03:00 -5°C° 0.1 mm 2 mps 621 mmHg 83%
    04:00 -5°C° 0.2 mm 2 mps 621 mmHg 84%
    05:00 -5°C° 0.2 mm 2 mps 621 mmHg 84%
    06:00 -5°C° 0.2 mm 2 mps 621 mmHg 84%
    07:00 -4°C° 0.1 mm 2 mps 622 mmHg 83%
    08:00 -4°C° 0.1 mm 2 mps 622 mmHg 82%
    09:00 -3°C° 0.1 mm 2 mps 623 mmHg 80%
    10:00 -2°C° 0.1 mm 2 mps 623 mmHg 79%
    11:00 -1°C° 0.1 mm 2 mps 623 mmHg 77%
    12:00 +1°C° 0.1 mm 2 mps 624 mmHg 75%
    13:00 -1°C° 0.1 mm 2 mps 623 mmHg 76%
    14:00 -1°C° 0.1 mm 2 mps 623 mmHg 77%
    15:00 -1°C° 0.1 mm 2 mps 623 mmHg 77%
    16:00 -2°C° 0.2 mm 2 mps 622 mmHg 82%
    17:00 -2°C° 0.2 mm 1 mps 622 mmHg 87%
    18:00 -3°C° 0.2 mm 1 mps 622 mmHg 92%
    19:00 -3°C° 0.2 mm 1 mps 622 mmHg 92%
    20:00 -4°C° 0.2 mm 1 mps 622 mmHg 93%
    21:00 -4°C° 0.2 mm 1 mps 622 mmHg 93%
    22:00 -4°C° 0.2 mm 1 mps 622 mmHg 93%
    23:00 -4°C° 0.2 mm 1 mps 622 mmHg 92%

    Tomorrow, 23 January, Monday

    Time Temperature Precipitation Wind Pressure Humidity
    00:00 -4°C° 0.2 mm 1 mps 621 mmHg 92%
    01:00 -6°C° 0.1 mm 2 mps 621 mmHg 92%
    02:00 -6°C° 0.1 mm 2 mps 621 mmHg 92%
    03:00 -6°C° 0.1 mm 2 mps 621 mmHg 91%
    04:00 -6°C° 0.2 mm 2 mps 621 mmHg 91%
    05:00 -6°C° 0.2 mm 2 mps 621 mmHg 91%
    06:00 -6°C° 0.2 mm 2 mps 621 mmHg 91%
    07:00 -5°C° 0.3 mm 2 mps 622 mmHg 89%
    08:00 -5°C° 0.3 mm 2 mps 622 mmHg 86%
    09:00 -4°C° 0.3 mm 2 mps 623 mmHg 84%
    10:00 -3°C° 0.4 mm 2 mps 623 mmHg 83%
    11:00 -2°C° 0.4 mm 2 mps 623 mmHg 82%
    12:00 -2°C° 0.4 mm 2 mps 623 mmHg 80%
    13:00 -2°C° 0.2 mm 2 mps 623 mmHg 81%
    14:00 -2°C° 0.2 mm 2 mps 623 mmHg 81%
    15:00 -2°C° 0.2 mm 2 mps 623 mmHg 82%
    16:00 -3°C° 0.1 mm 2 mps 622 mmHg 85%
    17:00 -4°C° 0.1 mm 2 mps 622 mmHg 89%
    18:00 -6°C° 0.1 mm 2 mps 622 mmHg 93%
    19:00 -6°C° 0 mm 2 mps 622 mmHg 92%
    20:00 -6°C° 0 mm 2 mps 622 mmHg 92%
    21:00 -7°C° 0 mm 2 mps 622 mmHg 91%
    22:00 -7°C° 0 mm 2 mps 622 mmHg 90%
    23:00 -7°C° 0 mm 2 mps 622 mmHg 88%

    Day after tomorrow, 24 January, Tuesday

    Time Temperature Precipitation Wind Pressure Humidity
    00:00 -7°C° 0 mm 2 mps 622 mmHg 87%
    01:00 -7°C° 0 mm 2 mps 621 mmHg 85%
    02:00 -8°C° 0 mm 3 mps 621 mmHg 84%
    03:00 -9°C° 0 mm 3 mps 621 mmHg 82%
    04:00 -9°C° 0 mm 3 mps 621 mmHg 79%
    05:00 -10°C° 0 mm 3 mps 621 mmHg 77%
    06:00 -10°C° 0 mm 3 mps 621 mmHg 75%
    07:00 -9°C° 0 mm 3 mps 621 mmHg 71%
    08:00 -8°C° 0 mm 3 mps 622 mmHg 68%
    09:00 -7°C° 0 mm 3 mps 623 mmHg 65%
    10:00 -5°C° 0 mm 3 mps 623 mmHg 63%
    11:00 -2°C° 0 mm 3 mps 624 mmHg 61%
    12:00 -1°C° 0 mm 3 mps 625 mmHg 59%
    13:00 -1°C° 0 mm 3 mps 624 mmHg 61%
    14:00 -1°C° 0 mm 3 mps 624 mmHg 63%
    15:00 -2°C° 0 mm 3 mps 624 mmHg 65%
    16:00 -5°C° 0 mm 3 mps 623 mmHg 71%
    17:00 -8°C° 0 mm 3 mps 622 mmHg 77%
    18:00 -9°C° 0 mm 2 mps 621 mmHg 83%
    19:00 -9°C° 0 mm 2 mps 621 mmHg 80%
    20:00 -9°C° 0 mm 2 mps 622 mmHg 78%
    21:00 -10°C° 0 mm 2 mps 622 mmHg 75%
    22:00 -10°C° 0 mm 2 mps 622 mmHg 74%
    23:00 -10°C° 0 mm 2 mps 622 mmHg 73%

    25 January, Wednesday

    Time Temperature Precipitation Wind Pressure Humidity
    00:00 -10°C° 0 mm 2 mps 622 mmHg 71%
    01:00 -12°C° 0 mm 2 mps 621 mmHg 72%
    02:00 -12°C° 0 mm 2 mps 621 mmHg 72%
    03:00 -11°C° 0 mm 1 mps 621 mmHg 72%
    04:00 -11°C° 0 mm 1 mps 621 mmHg 73%
    05:00 -11°C° 0 mm 1 mps 621 mmHg 74%
    06:00 -11°C° 0 mm 1 mps 621 mmHg 76%
    07:00 -8°C° 0 mm 1 mps 623 mmHg 74%
    08:00 -6°C° 0 mm 1 mps 624 mmHg 73%
    09:00 -3°C° 0 mm 1 mps 625 mmHg 71%
    10:00 -2°C° 0 mm 1 mps 626 mmHg 69%
    11:00 -2°C° 0 mm 2 mps 626 mmHg 67%
    12:00 -1°C° 0 mm 2 mps 627 mmHg 65%
    13:00 -1°C° 0 mm 2 mps 626 mmHg 66%
    14:00 -1°C° 0 mm 2 mps 626 mmHg 67%
    15:00 +1°C° 0 mm 1 mps 626 mmHg 68%
    16:00 -2°C° 0 mm 1 mps 625 mmHg 75%
    17:00 -7°C° 0 mm 1 mps 624 mmHg 83%
    18:00 -10°C° 0 mm 1 mps 622 mmHg 90%
    19:00 -10°C° 0 mm 1 mps 623 mmHg 89%
    20:00 -10°C° 0 mm 1 mps 623 mmHg 88%
    21:00 -10°C° 0 mm 1 mps 623 mmHg 87%
    22:00 -10°C° 0 mm 1 mps 623 mmHg 83%
    23:00 -10°C° 0 mm 1 mps 623 mmHg 79%

    26 January, Thursday

    Time Temperature Precipitation Wind Pressure Humidity
    00:00 -10°C° 0 mm 1 mps 623 mmHg 75%
    01:00 -10°C° 0 mm 1 mps 623 mmHg 73%
    02:00 -10°C° 0 mm 1 mps 623 mmHg 71%
    03:00 -10°C° 0 mm 1 mps 623 mmHg 69%
    04:00 -10°C° 0 mm 1 mps 623 mmHg 69%
    05:00 -10°C° 0 mm 1 mps 623 mmHg 69%
    06:00 -10°C° 0 mm 1 mps 623 mmHg 69%
    07:00 -8°C° 0 mm 1 mps 624 mmHg 65%
    08:00 -6°C° 0 mm 1 mps 626 mmHg 62%
    09:00 -2°C° 0 mm 1 mps 627 mmHg 59%
    10:00 -1°C° 0 mm 1 mps 628 mmHg 58%
    11:00 +1°C° 0 mm 1 mps 628 mmHg 56%
    12:00 +2°C° 0 mm 2 mps 629 mmHg 55%
    13:00 +2°C° 0 mm 2 mps 628 mmHg 57%
    14:00 +1°C° 0 mm 2 mps 628 mmHg 60%
    15:00 +1°C° 0 mm 2 mps 628 mmHg 62%
    16:00 -3°C° 0 mm 2 mps 627 mmHg 67%
    17:00 -4°C° 0 mm 1 mps 625 mmHg 71%
    18:00 -8°C° 0 mm 1 mps 624 mmHg 75%
    19:00 -9°C° 0 mm 1 mps 624 mmHg 73%
    20:00 -9°C° 0 mm 1 mps 624 mmHg 71%
    21:00 -9°C° 0 mm 1 mps 625 mmHg 69%
    22:00 -9°C° 0 mm 1 mps 625 mmHg 67%
    23:00 -9°C° 0 mm 1 mps 625 mmHg 66%

    27 January, Friday

    Time Temperature Precipitation Wind Pressure Humidity
    00:00 -8°C° 0 mm 1 mps 625 mmHg 64%
    01:00 -8°C° 0 mm 1 mps 625 mmHg 61%
    02:00 -8°C° 0 mm 1 mps 625 mmHg 58%
    03:00 -7°C° 0 mm 1 mps 625 mmHg 55%
    04:00 -7°C° 0 mm 1 mps 625 mmHg 53%
    05:00 -6°C° 0 mm 1 mps 626 mmHg 51%
    06:00 -6°C° 0 mm 2 mps 626 mmHg 49%
    07:00 -3°C° 0 mm 1 mps 627 mmHg 51%
    08:00 -1°C° 0 mm 1 mps 628 mmHg 54%
    09:00 +1°C° 0 mm 1 mps 629 mmHg 56%
    10:00 +2°C° 0 mm 1 mps 630 mmHg 57%
    11:00 +3°C° 0 mm 1 mps 630 mmHg 58%
    12:00 +4°C° 0 mm 1 mps 631 mmHg 59%
    13:00 +4°C° 0 mm 1 mps 631 mmHg 63%
    14:00 +4°C° 0 mm 1 mps 631 mmHg 68%
    15:00 +4°C° 0 mm 1 mps 631 mmHg 72%
    16:00 +2°C° 0 mm 1 mps 630 mmHg 78%
    17:00 0°C° 0 mm 1 mps 630 mmHg 85%
    18:00 -3°C° 0 mm 1 mps 629 mmHg 91%
    19:00 -3°C° 0 mm 1 mps 629 mmHg 91%
    20:00 -3°C° 0 mm 1 mps 629 mmHg 91%
    21:00 -5°C° 0 mm 2 mps 630 mmHg 92%
    22:00 -3°C° 0 mm 1 mps 630 mmHg 91%
    23:00 -3°C° 0 mm 1 mps 630 mmHg 91%
    Show more